Temperature
13 13 13 13 13 13 13 13 12 12 12 12 12 11 11 11 11 11 10 10 10 9 9 9 8 8 8 7 7 7 7 6 6 6 6 6 5 5 5 4 4 4 4
13 13 13 13 12 12 12 12 12 12 11 11 11 11 10 10 10 10 9 9 8 8 8 8 7 7 7 7 6 6 6 6 6 6 5 5 5 4 4 4 3 3 3
12 12 12 12 12 11 11 11 11 11 11 10 10 10 10 9 9 9 8 8 8 7 7 7 7 6 6 6 6 6 5 5 5 5 5 5 4 4 3 3 3 3 3
11 11 11 11 11 11 10 10 10 10 10 10 9 9 9 8 8 8 7 7 7 6 6 6 6 5 5 5 5 5 5 5 5 4 4 4 4 3 3 3 2 2 2
10 10 10 10 10 9 9 9 9 9 9 8 8 8 8 7 7 6 6 6 6 5 5 5 5 4 4 4 4 4 4 4 4 4 4 4 3 3 3 2 2 2 2
9 9 9 9 9 9 9 8 8 8 8 8 7 7 7 6 6 5 5 5 5 4 4 4 4 4 3 4 4 3 3 3 3 3 3 3 3 3 2 2 2 1 1
9 9 8 8 8 8 8 8 7 7 7 7 6 6 6 5 5 4 4 4 4 3 3 3 3 3 3 3 3 3 3 3 3 3 2 2 2 2 2 1 1 1 1
8 8 8 8 8 7 7 7 7 6 6 6 6 5 5 4 4 4 3 3 3 2 2 2 2 2 2 2 2 2 2 2 2 2 2 2 2 1 1 1 1 0 0
8 8 8 7 7 7 7 6 6 6 5 5 5 4 4 4 3 3 2 2 2 2 2 1 1 1 1 1 1 1 1 1 1 1 1 1 1 1 1 0 0 -0 -0
8 7 7 7 7 6 6 5 5 5 4 4 4 3 3 3 2 2 2 1 1 1 1 1 1 1 0 0 0 0 0 0 0 0 0 0 0 0 0 -0 -1 -1 -1
7 7 6 6 6 5 5 5 4 4 4 3 3 3 2 2 1 1 1 1 0 0 0 0 0 0 -0 -0 -0 -0 -0 -0 -0 -0 -0 -0 -1 -1 -1 -1 -1 -1 -1
6 6 6 5 5 5 4 4 4 3 3 3 3 2 2 1 1 0 0 -0 -0 -0 -0 -0 -0 -1 -1 -1 -1 -1 -1 -1 -1 -1 -1 -1 -1 -1 -1 -2 -2 -2 -2
6 5 5 5 5 4 4 4 3 3 3 2 2 2 1 1 0 -0 -0 -0 -1 -1 -1 -1 -1 -1 -1 -1 -1 -1 -1 -1 -1 -1 -1 -2 -2 -2 -2 -2 -2 -2 -2
5 5 5 4 4 4 3 3 3 2 2 2 1 1 1 0 -0 -0 -0 -1 -1 -1 -1 -1 -1 -1 -1 -1 -2 -2 -2 -2 -2 -2 -2 -2 -2 -2 -2 -2 -3 -3 -3
4 4 4 4 3 3 3 3 2 2 1 1 1 0 0 0 -0 -0 -1 -1 -1 -1 -1 -2 -2 -2 -1 -2 -2 -2 -2 -2 -2 -2 -2 -2 -2 -3 -3 -3 -3 -3 -3
3 3 3 3 3 2 2 2 1 1 1 1 0 0 -0 -0 -1 -1 -1 -1 -1 -2 -2 -2 -2 -2 -2 -2 -2 -2 -2 -2 -2 -2 -2 -3 -3 -3 -3 -3 -3 -3 -3
3 2 2 2 2 2 1 1 1 1 0 0 0 -0 -0 -1 -1 -1 -1 -2 -2 -2 -2 -2 -2 -2 -2 -2 -2 -2 -2 -2 -3 -3 -3 -3 -3 -3 -3 -3 -3 -4 -4
2 1 1 1 1 1 1 1 0 0 0 0 -0 -0 -1 -1 -1 -1 -1 -2 -2 -2 -2 -1 -1 -2 -2 -2 -2 -2 -2 -3 -3 -3 -3 -3 -3 -3 -3 -3 -3 -4 -4
1 1 1 1 1 0 0 -0 -0 -0 -0 -0 -0 -1 -1 -1 -1 -2 -2 -2 -2 -2 -2 -2 -2 -2 -2 -2 -2 -2 -2 -3 -3 -3 -3 -3 -3 -3 -3 -3 -4 -4 -5
0 0 0 0 0 -0 -0 -0 -1 -1 -1 -1 -1 -1 -1 -1 -2 -2 -2 -2 -2 -2 -2 -2 -2 -2 -2 -2 -2 -2 -3 -3 -3 -3 -3 -3 -3 -4 -4 -4 -4 -5 -5
-0 -0 -0 -1 -1 -1 -1 -1 -1 -1 -1 -1 -1 -2 -2 -2 -2 -2 -2 -2 -2 -2 -2 -2 -2 -2 -2 -2 -2 -3 -3 -3 -3 -3 -3 -3 -4 -4 -4 -4 -5 -5 -5
-1 -1 -1 -1 -1 -1 -1 -1 -1 -2 -2 -2 -2 -2 -2 -2 -2 -3 -2 -2 -2 -3 -3 -3 -3 -3 -3 -3 -3 -3 -3 -3 -3 -3 -3 -4 -4 -4 -4 -5 -5 -5 -6
-1 -1 -1 -2 -2 -2 -2 -2 -2 -2 -2 -3 -3 -3 -3 -3 -3 -3 -3 -3 -3 -3 -3 -3 -3 -3 -3 -3 -3 -3 -3 -3 -3 -4 -4 -4 -4 -5 -5 -5 -5 -6 -6
-2 -2 -2 -2 -2 -3 -3 -3 -3 -3 -3 -3 -3 -4 -4 -4 -4 -4 -4 -4 -4 -4 -4 -4 -4 -4 -4 -4 -4 -4 -4 -4 -4 -4 -4 -5 -5 -5 -5 -6 -6 -6 -7
-3 -3 -3 -3 -3 -3 -3 -3 -4 -4 -4 -4 -4 -4 -4 -4 -4 -4 -4 -4 -4 -4 -4 -4 -4 -4 -4 -4 -4 -4 -4 -4 -5 -5 -5 -5 -5 -6 -6 -6 -7 -7 -7
-3 -3 -3 -4 -4 -4 -4 -4 -4 -4 -4 -4 -4 -5 -5 -5 -5 -5 -5 -5 -5 -4 -5 -5 -5 -5 -4 -5 -5 -5 -5 -5 -5 -5 -6 -6 -6 -6 -7 -7 -7 -8 -8
Wind_Speed
6 6 6 6 6 7 7 7 7 6 6 6 6 5 4 3 3 3 2 2 2 1 1 1 1 1 1 1 1 2 2 2 3 2 2 2 2 3 5 6 6 6 6
6 7 7 6 7 7 7 6 6 7 6 5 5 5 4 4 3 3 2 2 2 2 2 1 1 0 0 1 1 1 1 1 3 3 2 2 2 3 4 4 4 5 6
7 8 7 7 7 7 7 7 7 6 6 5 5 5 4 3 3 2 2 2 2 1 1 1 1 1 1 0 0 0 0 1 1 3 3 2 2 2 3 3 3 3 4
7 8 8 7 7 7 7 7 7 6 6 5 5 4 3 3 3 2 2 2 2 2 2 1 1 1 1 1 1 0 1 1 2 3 3 3 2 2 3 3 2 2 2
8 8 7 7 7 7 7 7 7 6 6 5 5 4 3 2 2 3 3 3 3 3 2 2 1 2 2 2 1 1 2 2 3 3 3 3 2 3 3 2 2 1 1
8 8 7 8 8 7 7 7 6 6 5 5 4 4 3 2 3 4 4 3 3 3 3 2 2 3 3 4 4 3 3 3 4 4 3 3 4 3 3 3 3 2 1
8 8 8 8 8 7 7 7 7 6 5 5 4 4 3 3 4 4 5 4 3 3 3 3 2 3 4 4 6 7 5 3 4 4 4 4 5 5 5 4 3 2 2
8 8 8 9 8 7 7 7 6 5 5 4 4 4 3 3 4 4 5 4 3 3 3 4 3 3 3 4 4 4 5 4 3 3 4 4 4 5 5 5 4 3 2
9 9 9 9 9 8 8 7 5 5 4 4 4 4 4 3 5 5 6 4 3 3 3 3 4 3 5 6 5 4 4 3 6 8 8 8 8 9 9 5 4 3 1
9 9 8 9 9 9 8 6 4 4 5 4 4 4 4 4 6 7 7 4 4 3 2 3 5 5 5 6 5 5 4 2 2 4 6 6 6 6 6 5 5 3 2
7 7 7 8 8 8 7 5 5 5 5 4 4 3 4 6 7 8 9 4 4 4 3 3 3 7 6 6 6 5 5 5 4 4 3 3 3 3 4 4 4 4 3
6 7 7 7 7 7 7 6 6 6 6 5 4 4 3 4 6 8 10 9 7 5 5 4 4 7 7 7 5 6 7 6 4 3 3 2 2 2 2 3 4 4 3
6 6 6 7 6 7 8 7 6 6 5 5 5 5 4 4 5 11 11 11 11 6 5 8 8 9 7 5 6 8 6 4 4 3 3 3 3 3 3 3 2 2 1
6 5 6 6 6 6 6 6 6 7 6 6 6 6 5 4 5 5 5 5 8 6 5 7 9 9 6 6 5 4 4 5 4 4 3 3 3 3 3 3 2 2 1
4 4 5 5 6 6 5 6 7 6 7 7 7 6 6 6 9 12 8 6 5 5 5 3 3 2 3 3 3 3 4 4 5 4 4 4 4 4 3 3 3 3 3
4 4 4 4 4 4 4 4 7 8 10 12 11 9 8 10 10 12 14 14 13 12 7 4 6 6 6 6 6 5 5 5 5 5 5 5 5 5 4 3 3 4 4
3 3 3 4 4 4 5 5 4 5 9 11 13 14 13 11 12 13 14 14 14 14 9 6 7 7 7 7 6 6 6 6 5 6 6 6 5 5 4 5 5 5 5
2 3 3 3 4 4 5 5 5 5 4 4 8 12 14 14 13 13 13 11 9 10 7 8 8 8 7 7 7 7 6 6 6 6 6 6 6 6 6 6 6 6 6
1 2 2 3 3 3 4 4 4 5 5 4 4 5 10 11 12 13 12 7 7 8 8 8 8 8 8 8 7 7 7 7 7 7 7 8 7 7 7 7 7 10 9
1 2 2 2 3 3 4 4 5 5 5 5 5 5 4 5 5 7 8 7 8 8 8 8 8 8 8 8 8 8 7 8 8 8 8 8 8 7 8 9 8 8 8
1 2 3 2 3 3 4 4 5 5 5 5 5 6 8 6 6 7 7 8 8 9 8 8 8 8 8 8 8 9 9 8 8 8 8 8 8 8 8 8 8 8 8
1 2 2 2 3 3 4 4 4 5 5 6 5 5 10 7 6 6 7 7 7 8 7 7 7 8 8 8 9 9 9 9 9 9 9 8 8 9 8 8 8 8 8
2 2 2 2 2 4 4 3 4 4 5 5 5 5 5 5 6 6 7 7 6 6 6 7 7 7 8 10 11 9 9 10 9 9 9 9 9 9 9 9 10 9 10
2 2 3 3 3 3 3 4 4 4 5 5 5 5 5 5 6 6 6 6 6 6 6 7 8 9 10 10 12 13 14 14 13 11 11 9 9 9 9 9 9 10 10
2 2 2 2 3 3 3 4 4 4 4 5 5 5 5 5 5 5 5 5 6 6 7 7 8 9 11 12 12 13 15 17 16 14 12 9 9 10 9 9 9 9 10
2 2 2 2 3 3 3 4 4 4 4 5 5 5 5 5 5 5 5 5 5 6 6 6 8 10 11 12 14 16 17 17 18 17 14 9 10 9 10 9 10 10 10
Wind_Direction
150 145 141 143 142 141 145 150 149 143 145 146 145 141 139 137 134 134 143 159 185 208 215 206 221 232 244 259 249 231 222 205 205 137 118 126 125 130 112 99 88 76 67
143 136 135 134 133 133 133 133 133 132 131 135 131 131 137 135 131 141 156 168 189 206 213 191 215 122 275 321 272 239 221 199 171 161 141 141 138 149 128 110 87 75 64
138 134 131 131 132 132 130 124 120 119 116 115 120 131 134 129 124 132 150 151 159 168 165 176 186 162 211 275 287 252 232 150 133 143 142 128 120 139 121 98 85 57 60
143 141 141 141 138 132 127 123 120 119 118 114 114 119 118 115 119 126 134 133 126 112 106 120 139 162 189 189 174 182 137 124 120 125 125 120 119 122 123 125 104 51 30
148 148 150 140 133 129 127 125 121 121 122 122 122 115 111 120 141 148 146 143 135 116 95 87 94 118 139 151 151 165 154 146 137 134 135 130 142 147 161 150 140 100 25
155 156 148 141 139 137 136 132 127 125 124 126 130 133 142 157 168 167 156 148 148 147 139 106 83 76 89 91 95 117 153 163 168 158 156 163 170 162 139 138 131 133 227
160 157 154 151 149 149 146 141 143 143 141 142 145 149 158 173 177 176 169 152 157 160 158 149 129 107 87 75 73 64 58 83 159 162 162 173 166 169 150 140 147 155 190
164 163 161 158 157 154 152 155 155 149 153 156 161 160 161 184 183 173 163 141 151 163 167 163 154 144 141 124 101 76 56 44 72 108 144 156 156 150 152 154 151 126 91
174 174 171 166 163 163 167 168 161 155 159 164 166 169 175 191 188 177 160 142 154 165 170 171 170 178 179 155 131 116 87 53 77 102 115 126 134 143 140 121 126 121 145
186 179 171 168 169 174 175 167 159 158 166 166 173 185 187 197 202 194 175 158 166 171 174 187 193 195 198 179 156 153 153 147 98 88 86 87 91 116 137 142 148 141 152
172 162 165 170 172 171 167 163 158 159 162 172 185 198 200 206 209 206 194 175 182 181 188 198 217 210 208 199 184 180 193 170 147 130 115 97 82 83 94 120 142 146 156
153 160 167 167 167 166 164 165 163 165 173 184 193 208 216 215 216 218 213 206 196 188 198 203 215 217 214 210 200 199 193 165 142 144 148 158 157 156 142 136 140 144 163
151 162 165 164 166 165 169 171 172 178 188 195 199 212 218 215 221 224 223 218 210 198 204 210 214 219 217 216 213 205 184 156 158 174 188 195 193 177 151 134 120 117 115
159 165 166 169 172 173 176 179 185 191 199 202 207 216 217 215 218 219 218 222 219 210 203 216 218 220 211 208 218 215 181 178 182 192 195 187 161 158 169 166 164 156 177
156 165 171 177 179 183 189 197 201 206 204 206 210 208 208 221 224 215 206 207 197 196 176 175 182 191 201 201 206 208 198 197 206 187 186 185 187 187 191 178 173 171 188
161 174 181 184 186 188 195 216 224 222 228 230 227 220 223 229 233 225 222 221 217 209 197 200 207 210 215 217 217 217 212 212 209 201 198 199 200 200 201 191 189 194 213
180 189 190 192 193 196 200 209 227 236 236 239 238 236 233 232 233 231 226 222 220 213 214 213 215 216 219 220 219 218 219 215 205 205 208 206 204 204 202 206 207 214 225
194 202 200 202 203 205 209 213 216 223 233 241 240 241 241 237 233 231 228 222 223 218 215 218 219 218 219 220 220 221 221 215 209 212 212 209 205 205 209 213 214 218 226
223 221 213 209 208 210 212 215 221 226 233 239 237 244 242 242 238 234 227 221 219 222 221 222 222 220 220 220 221 219 217 217 213 210 214 212 209 208 216 218 219 229 230
261 256 235 218 215 217 218 221 225 229 233 234 236 234 223 221 226 226 221 221 225 228 227 228 227 225 223 221 220 219 220 221 219 218 218 215 212 211 218 220 220 224 229
285 273 255 235 227 226 227 230 231 232 235 238 240 236 228 223 227 227 225 225 228 231 231 231 230 227 226 225 223 221 221 225 222 220 219 217 214 216 220 221 221 224 228
276 269 257 248 244 241 243 239 239 240 243 247 251 249 248 239 233 235 234 233 231 231 231 232 234 232 228 225 223 223 226 228 225 221 220 218 216 218 218 220 222 223 226
269 265 266 263 256 261 260 251 248 249 251 250 251 248 244 241 241 241 242 241 237 235 232 231 235 236 231 228 226 223 227 229 225 218 217 218 218 218 218 220 221 222 226
274 265 265 268 267 263 261 260 256 257 257 257 254 252 248 246 246 247 249 249 245 241 236 235 237 238 235 233 232 231 233 234 228 222 217 219 219 219 218 221 222 224 226
274 270 267 268 270 270 270 271 269 268 267 265 264 262 260 258 255 255 253 253 252 250 245 239 241 243 243 239 237 236 237 236 232 227 221 219 221 219 219 221 222 224 225
268 271 270 267 265 268 270 272 272 272 270 271 270 269 268 264 263 262 259 255 255 256 255 248 247 247 248 247 245 244 244 243 240 235 227 220 218 221 219 224 222 224 225
Height
1492 1495 1497 1500 1502 1504 1507 1509 1512 1514 1515 1517 1518 1519 1520 1520 1520 1520 1520 1520 1520 1520 1520 1519 1518 1518 1518 1518 1518 1518 1518 1519 1519 1519 1520 1520 1520 1521 1521 1521 1520 1520 1520
1488 1491 1493 1496 1498 1501 1503 1506 1508 1509 1511 1512 1513 1514 1515 1515 1515 1515 1515 1515 1515 1515 1515 1514 1513 1513 1513 1513 1513 1513 1513 1514 1515 1515 1515 1516 1516 1517 1517 1517 1517 1517 1517
1484 1487 1490 1492 1495 1497 1499 1501 1503 1505 1507 1508 1509 1510 1510 1510 1510 1511 1511 1511 1510 1510 1510 1509 1509 1508 1508 1508 1508 1509 1509 1510 1510 1511 1511 1511 1512 1513 1513 1513 1514 1514 1514
1481 1483 1486 1489 1491 1493 1495 1497 1499 1501 1502 1503 1505 1505 1505 1505 1505 1506 1506 1506 1505 1505 1505 1505 1504 1504 1504 1504 1504 1505 1505 1505 1506 1506 1507 1507 1508 1509 1509 1510 1510 1511 1511
1478 1480 1483 1485 1488 1490 1492 1494 1496 1497 1499 1500 1501 1501 1501 1501 1501 1501 1501 1501 1501 1501 1501 1501 1500 1500 1500 1500 1501 1501 1501 1501 1502 1502 1503 1504 1504 1505 1506 1506 1507 1508 1508
1475 1478 1480 1483 1485 1487 1489 1491 1493 1494 1495 1496 1497 1497 1497 1497 1497 1497 1497 1497 1497 1497 1497 1497 1497 1497 1497 1497 1497 1497 1497 1498 1498 1499 1499 1500 1501 1502 1502 1503 1504 1505 1506
1473 1475 1478 1480 1482 1484 1486 1488 1490 1491 1492 1492 1493 1493 1494 1493 1493 1493 1493 1493 1493 1493 1493 1493 1493 1493 1493 1493 1493 1493 1494 1494 1495 1496 1496 1497 1498 1498 1500 1500 1501 1502 1503
1470 1473 1475 1478 1480 1482 1484 1485 1487 1487 1488 1489 1489 1489 1490 1490 1490 1490 1489 1489 1489 1490 1490 1490 1490 1490 1490 1490 1490 1490 1490 1491 1492 1492 1493 1494 1495 1496 1497 1498 1498 1499 1500
1468 1470 1473 1475 1477 1479 1481 1482 1483 1484 1485 1485 1486 1486 1486 1486 1486 1486 1486 1486 1486 1486 1487 1487 1487 1487 1487 1487 1488 1488 1488 1488 1489 1489 1490 1491 1492 1493 1494 1495 1495 1496 1496
1465 1468 1470 1472 1474 1476 1478 1479 1480 1481 1481 1482 1482 1482 1482 1483 1483 1483 1483 1483 1483 1483 1484 1484 1484 1485 1485 1485 1485 1485 1486 1486 1486 1487 1488 1488 1489 1490 1491 1492 1493 1493 1494
1463 1465 1467 1469 1471 1473 1474 1475 1476 1477 1478 1478 1479 1479 1479 1479 1479 1479 1480 1480 1480 1480 1481 1481 1482 1482 1482 1482 1482 1483 1483 1483 1484 1484 1485 1486 1487 1487 1488 1489 1490 1491 1491
1460 1462 1464 1466 1467 1469 1471 1472 1473 1474 1474 1474 1475 1475 1475 1476 1476 1476 1476 1477 1477 1478 1478 1479 1479 1479 1479 1479 1480 1480 1480 1481 1481 1482 1483 1483 1484 1485 1486 1486 1487 1488 1488
1457 1459 1461 1462 1464 1466 1467 1468 1469 1470 1470 1471 1471 1471 1472 1472 1472 1473 1473 1473 1474 1474 1475 1475 1476 1476 1476 1477 1477 1477 1478 1478 1479 1479 1480 1481 1482 1482 1483 1483 1484 1484 1485
1454 1456 1457 1459 1460 1462 1463 1464 1465 1465 1466 1467 1467 1467 1468 1468 1469 1469 1469 1470 1471 1471 1472 1472 1472 1473 1473 1474 1474 1474 1475 1475 1476 1477 1477 1478 1479 1479 1480 1480 1481 1481 1481
1451 1452 1454 1455 1456 1457 1458 1460 1461 1462 1463 1463 1463 1463 1464 1464 1465 1465 1466 1466 1467 1468 1468 1468 1469 1469 1470 1470 1471 1471 1472 1472 1473 1473 1474 1475 1475 1476 1476 1476 1477 1477 1477
1448 1449 1451 1452 1452 1453 1454 1455 1456 1457 1458 1458 1459 1459 1459 1460 1461 1461 1462 1462 1463 1464 1464 1464 1464 1465 1466 1466 1467 1467 1468 1468 1469 1469 1470 1470 1471 1471 1472 1472 1472 1473 1473
1445 1446 1447 1448 1449 1449 1450 1451 1452 1453 1453 1454 1454 1455 1455 1456 1456 1457 1457 1458 1459 1459 1459 1459 1460 1460 1461 1462 1463 1463 1463 1464 1465 1465 1465 1466 1466 1467 1467 1467 1468 1468 1468
1443 1443 1444 1444 1445 1445 1446 1447 1448 1448 1449 1449 1450 1450 1450 1451 1451 1452 1453 1453 1453 1454 1454 1454 1455 1456 1456 1457 1458 1458 1459 1459 1459 1460 1460 1461 1461 1461 1462 1462 1462 1462 1463
1440 1440 1440 1440 1441 1441 1442 1442 1443 1443 1444 1444 1445 1445 1445 1446 1446 1447 1447 1447 1448 1448 1449 1449 1450 1450 1451 1452 1452 1453 1453 1453 1454 1454 1454 1455 1455 1456 1456 1456 1457 1457 1457
1436 1436 1436 1436 1437 1437 1437 1437 1438 1438 1439 1439 1439 1440 1440 1440 1441 1441 1441 1441 1442 1442 1443 1443 1443 1444 1445 1445 1446 1446 1447 1447 1447 1448 1448 1449 1449 1449 1449 1450 1450 1450 1450
1433 1433 1433 1433 1433 1433 1433 1433 1433 1434 1434 1434 1434 1435 1435 1435 1435 1435 1435 1436 1436 1436 1436 1436 1437 1437 1438 1438 1439 1439 1439 1440 1440 1441 1441 1442 1442 1442 1443 1443 1443 1443 1443
1429 1429 1429 1429 1428 1428 1428 1428 1428 1428 1428 1429 1429 1429 1429 1429 1429 1429 1429 1429 1430 1430 1430 1430 1429 1430 1430 1430 1431 1431 1432 1432 1433 1433 1434 1434 1435 1435 1435 1435 1435 1436 1436
1425 1425 1425 1424 1424 1424 1424 1424 1424 1423 1423 1423 1423 1423 1423 1423 1423 1423 1423 1423 1423 1423 1423 1423 1422 1422 1423 1423 1423 1423 1423 1424 1425 1426 1426 1426 1426 1427 1427 1427 1427 1428 1428
1421 1421 1420 1420 1420 1419 1419 1419 1418 1418 1418 1418 1418 1417 1417 1417 1417 1416 1416 1416 1416 1415 1415 1415 1415 1415 1415 1415 1415 1415 1415 1416 1417 1417 1418 1418 1418 1418 1419 1419 1420 1420 1420
1417 1416 1416 1415 1415 1414 1414 1414 1413 1413 1412 1412 1412 1411 1411 1410 1410 1410 1409 1409 1409 1408 1408 1408 1407 1407 1407 1407 1407 1407 1408 1408 1408 1409 1409 1409 1410 1410 1410 1411 1411 1412 1412
1413 1412 1412 1411 1410 1410 1409 1409 1408 1407 1407 1406 1406 1405 1404 1404 1403 1403 1403 1402 1402 1401 1401 1400 1400 1400 1399 1399 1399 1399 1399 1400 1400 1400 1400 1401 1401 1401 1402 1402 1403 1404 1404